CANAVERAL NM East of Cape Canaveral, FL (41009)

Conditions for Wednesday

Daily
Weekly
Monthly
Marine Data Graph
Ad Blocker Enabled

Marine & Boating Location Search

Enter a coastal zip code for marine weather.

General Information

Location: 28.522 North -80.188 West
Buoy Type: 3-meter discus buoy
Buoy Hull: 3D86
Payload: AMPS payload
Owned by: NDBC
Windspeed: Measured by obtained from anemometer
Sea Surface: Measured by Intake

Weather and Wave Data

Time Temp Humidity Wind Dominant Wave Wind Wave Wave Swell Pressure
  Air
(°F)
Water
(°F)
  Dir Speed
(kts)
Speed
(mph)
Period
(sec)
Height
(ft)
Range
(ft)
Period
(sec)
Height
(ft)
Range
(ft)
Period
(sec)
Height
(ft)
Range
(ft)
Atmo.
(in)
Tend.
(in)
20:20 71 72 76 South 11.7 13.4 - - - - - - 30.12 -
20:50 71 72 74 SSW 9.7 11.2 11 2.95 exactly 3.0 4 1.64 0.82 - 2.46 11 3.28 2.46 - 4.10 30.12 +0.03
21:20 72 72 65 SW 7.8 8.9 - - - - - - 30.13 -
21:50 72 72 55 WSW 7.8 8.9 11 2.62 exactly 2.6 3 1.64 0.82 - 2.46 11 1.64 0.82 - 2.46 30.13 +0.02
22:20 71 72 53 West 9.7 11.2 - - - - - - 30.12 -
22:50 71 72 54 West 9.7 11.2 6 2.62 exactly 2.6 5 1.64 0.82 - 2.46 6 1.64 0.82 - 2.46 30.12 -
23:20 71 72 56 West 9.7 11.2 - - - - - - 30.12 -
23:50 70 72 57 West 11.7 13.4 11 2.62 exactly 2.6 5 1.64 0.82 - 2.46 11 1.64 0.82 - 2.46 30.11 -0.01
00:20 70 72 57 WNW 9.7 11.2 - - - - - - 30.10 -
00:50 69 72 60 WNW 11.7 13.4 11 2.30 exactly 2.3 4 1.64 0.82 - 2.46 11 1.64 0.82 - 2.46 30.09 -0.04
01:20 69 72 59 WNW 13.6 15.7 - - - - - - 30.10 -
01:50 69 72 61 WNW 11.7 13.4 9 2.30 exactly 2.3 5 1.64 0.82 - 2.46 9 1.64 0.82 - 2.46 30.10 -0.01
02:20 69 72 62 WNW 11.7 13.4 - - - - - - 30.09 -
02:50 69 72 64 WNW 11.7 13.4 10 2.30 exactly 2.3 3 1.64 0.82 - 2.46 10 1.64 0.82 - 2.46 30.09 -0.02
03:20 69 72 64 WNW 13.6 15.7 - - - - - - 30.09 -
03:50 69 72 66 WNW 11.7 13.4 10 2.62 exactly 2.6 3 1.64 0.82 - 2.46 10 1.64 0.82 - 2.46 30.09 -
04:20 69 72 65 WNW 13.6 15.7 - - - - - - 30.08 -
04:50 68 72 69 NW 13.6 15.7 9 2.62 exactly 2.6 3 1.64 0.82 - 2.46 9 1.64 0.82 - 2.46 30.09 -0.02
05:20 67 72 75 NW 13.6 15.7 - - - - - - 30.09 -
05:50 67 72 77 NW 13.6 15.7 11 2.62 exactly 2.6 4 1.64 0.82 - 2.46 11 1.64 0.82 - 2.46 30.09 -
06:20 67 72 77 NNW 11.7 13.4 - - - - - - 30.11 -
06:50 67 72 75 NNW 9.7 11.2 11 2.30 exactly 2.3 4 1.64 0.82 - 2.46 11 1.64 0.82 - 2.46 30.12 +0.03
07:20 68 72 74 North 11.7 13.4 - - - - - - 30.12 -
07:50 67 72 74 North 13.6 15.7 11 2.30 exactly 2.3 3 1.64 0.82 - 2.46 11 1.64 0.82 - 2.46 30.13 +0.04
08:20 67 72 71 North 11.7 13.4 - - - - - - 30.14 -
08:50 68 72 65 North 9.7 11.2 10 2.30 exactly 2.3 4 1.64 0.82 - 2.46 10 1.64 0.82 - 2.46 30.14 +0.05
09:20 68 72 64 North 7.8 8.9 - - - - - - 30.15 -
09:50 68 72 65 North 7.8 8.9 4 2.30 exactly 2.3 4 1.64 0.82 - 2.46 11 1.64 0.82 - 2.46 30.15 +0.03
10:20 68 72 64 North 9.7 11.2 - - - - - - 30.14 -
10:50 68 72 64 North 9.7 11.2 10 2.30 exactly 2.3 4 1.64 0.82 - 2.46 10 1.64 0.82 - 2.46 30.15 +0.02
11:20 67 72 66 North 11.7 13.4 - - - - - - 30.15 -
11:50 67 72 70 North 11.7 13.4 4 2.62 exactly 2.6 4 1.64 0.82 - 2.46 8 1.64 0.82 - 2.46 30.14 -
12:20 67 72 68 North 9.7 11.2 - - - - - - 30.12 -
12:50 67 72 68 North 9.7 11.2 5 2.62 exactly 2.6 4 1.64 0.82 - 2.46 5 1.64 0.82 - 2.46 30.11 -0.04
13:20 67 72 70 North 7.8 8.9 - - - - - - 30.10 -
14:50 67 72 67 North 7.8 8.9 5 2.95 exactly 3.0 4 1.64 0.82 - 2.46 5 3.28 2.46 - 4.10 30.06 -0.07
15:20 67 72 67 North 7.8 8.9 - - - - - - 30.06 -
15:50 67 72 67 NNW 7.8 8.9 6 2.95 exactly 3.0 4 1.64 0.82 - 2.46 6 3.28 2.46 - 4.10 30.07 -0.04
16:20 68 72 67 NNW 9.7 11.2 - - - - - - 30.07 -
16:50 67 72 69 North 11.7 13.4 5 2.95 exactly 3.0 5 1.64 0.82 - 2.46 7 1.64 0.82 - 2.46 30.08 -0.01
17:20 67 72 71 North 9.7 11.2 - - - - - - 30.08 -
17:50 67 72 72 North 11.7 13.4 6 2.95 exactly 3.0 4 1.64 0.82 - 2.46 6 1.64 0.82 - 2.46 30.09 +0.02
18:20 68 72 71 North 13.6 15.7 - - - - - - 30.09 -
18:50 67 72 74 North 11.7 13.4 6 2.95 exactly 3.0 6 1.64 0.82 - 2.46 6 1.64 0.82 - 2.46 30.09 +0.03
19:50 68 72 71 NNE 9.7 11.2 6 3.28 exactly 3.3 4 1.64 0.82 - 2.46 6 1.64 0.82 - 2.46 30.10 +0.02
20:20 69 72 71 NNE 11.7 13.4 - - - - - - 30.10 -
20:50 69 72 72 NNE 9.7 11.2 6 2.95 exactly 3.0 4 1.64 0.82 - 2.46 6 1.64 0.82 - 2.46 30.11 +0.02
21:20 70 72 68 NNE 9.7 11.2 - - - - - - 30.12 -
21:50 69 72 71 NNE 9.7 11.2 6 2.95 exactly 3.0 5 1.64 0.82 - 2.46 6 1.64 0.82 - 2.46 30.13 +0.04
22:20 69 72 70 NNE 11.7 13.4 - - - - - - 30.13 -
22:50 69 72 71 NNE 11.7 13.4 7 2.95 exactly 3.0 6 1.64 0.82 - 2.46 7 1.64 0.82 - 2.46 30.13 +0.03
23:20 69 72 71 NE 9.7 11.2 - - - - - - 30.12 -
23:50 69 72 69 NE 9.7 11.2 6 2.95 exactly 3.0 4 1.64 0.82 - 2.46 6 1.64 0.82 - 2.46 30.10 -
00:20 69 72 69 NE 9.7 11.2 - - - - - - 30.09 -
00:50 70 72 68 ENE 7.8 8.9 7 2.62 exactly 2.6 3 1.64 0.82 - 2.46 7 1.64 0.82 - 2.46 30.08 -0.05
01:20 70 73 68 ENE 7.8 8.9 - - - - - - 30.08 -
01:50 70 72 70 ENE 7.8 8.9 7 2.62 exactly 2.6 3 1.64 0.82 - 2.46 7 1.64 0.82 - 2.46 30.08 -0.05
02:20 71 72 68 ENE 7.8 8.9 - - - - - - 30.07 -
02:50 71 72 70 ENE 7.8 8.9 9 2.30 exactly 2.3 4 1.64 0.82 - 2.46 9 1.64 0.82 - 2.46 30.06 -0.04
03:20 71 72 67 ENE 5.8 6.7 - - - - - - 30.06 -
03:50 71 73 68 ENE 7.8 8.9 7 2.62 exactly 2.6 4 1.64 0.82 - 2.46 7 1.64 0.82 - 2.46 30.06 -0.02

Detailed Wave Spectra

Time Water Depth Wave Height Spectral Peak Period Average Wave Period Sampling Interval Wave Record
20:00 135 ft 3.41 ft 10.8 sec 5.4 sec 0.6 sec 2400 sec
21:00 135 ft 2.92 ft 10.8 sec 5.1 sec 0.6 sec 2400 sec
00:00 135 ft 2.53 ft 11.4 sec 4.8 sec 0.6 sec 2400 sec
01:00 135 ft 2.46 ft 11.4 sec 4.4 sec 0.6 sec 2400 sec
02:00 135 ft 2.43 ft 9.1 sec 4.3 sec 0.6 sec 2400 sec
03:00 135 ft 2.46 ft 10.0 sec 4.4 sec 0.6 sec 2400 sec
04:00 135 ft 2.56 ft 10.0 sec 4.3 sec 0.6 sec 2400 sec
05:00 135 ft 2.56 ft 9.1 sec 4.3 sec 0.6 sec 2400 sec
06:00 135 ft 2.69 ft 10.8 sec 4.1 sec 0.6 sec 2400 sec
07:00 135 ft 2.40 ft 10.8 sec 4.1 sec 0.6 sec 2400 sec
08:00 135 ft 2.40 ft 10.8 sec 4.3 sec 0.6 sec 2400 sec
09:00 135 ft 2.33 ft 10.0 sec 4.5 sec 0.6 sec 2400 sec
10:00 135 ft 2.30 ft 3.8 sec 4.4 sec 0.6 sec 2400 sec
11:00 135 ft 2.43 ft 10.0 sec 4.6 sec 0.6 sec 2400 sec
12:00 135 ft 2.59 ft 4.3 sec 4.5 sec 0.6 sec 2400 sec
13:00 135 ft 2.53 ft 4.8 sec 4.6 sec 0.6 sec 2400 sec
15:00 135 ft 2.85 ft 5.3 sec 4.8 sec 0.6 sec 2400 sec
16:00 135 ft 2.85 ft 5.6 sec 5.0 sec 0.6 sec 2400 sec
17:00 135 ft 2.82 ft 5.3 sec 5.0 sec 0.6 sec 2400 sec
18:00 135 ft 2.85 ft 5.6 sec 4.9 sec 0.6 sec 2400 sec
19:00 135 ft 2.99 ft 5.6 sec 4.5 sec 0.6 sec 2400 sec
20:00 135 ft 3.18 ft 5.9 sec 4.6 sec 0.6 sec 2400 sec
21:00 135 ft 3.02 ft 5.9 sec 4.7 sec 0.6 sec 2400 sec
22:00 135 ft 2.89 ft 5.9 sec 4.7 sec 0.6 sec 2400 sec
23:00 135 ft 2.95 ft 6.7 sec 4.8 sec 0.6 sec 2400 sec
00:00 135 ft 2.82 ft 5.9 sec 4.6 sec 0.6 sec 2400 sec
01:00 135 ft 2.62 ft 6.7 sec 4.7 sec 0.6 sec 2400 sec
02:00 135 ft 2.56 ft 7.1 sec 5.1 sec 0.6 sec 2400 sec
03:00 135 ft 2.40 ft 9.1 sec 5.0 sec 0.6 sec 2400 sec